• In Netherlands
  • List of Countries
  • For 7 days
  • Water Temperature
  • Satellite Maps
  • Weather Map
  • Weather Widgets
  • user-avatar
    Login

    Hourly Weather La Rioja

    Today, 21 February, Tuesday

    Time Temperature Precipitation Wind Pressure Humidity
    00:00 +29°C° 0 mm 2 mps 716 mmHg 52%
    01:00 +28°C° 0 mm 1 mps 716 mmHg 52%
    02:00 +28°C° 0 mm 1 mps 716 mmHg 53%
    03:00 +28°C° 0 mm 1 mps 716 mmHg 52%
    04:00 +27°C° 0 mm 1 mps 716 mmHg 50%
    05:00 +27°C° 0 mm 1 mps 716 mmHg 49%
    06:00 +28°C° 0 mm 1 mps 716 mmHg 46%
    07:00 +30°C° 0 mm 1 mps 716 mmHg 43%
    08:00 +31°C° 0 mm 1 mps 717 mmHg 39%
    09:00 +32°C° 0 mm 2 mps 717 mmHg 37%
    10:00 +35°C° 0 mm 2 mps 717 mmHg 35%
    11:00 +36°C° 0 mm 2 mps 717 mmHg 33%
    12:00 +37°C° 0 mm 2 mps 716 mmHg 31%
    13:00 +38°C° 0 mm 3 mps 716 mmHg 29%
    14:00 +39°C° 0 mm 3 mps 715 mmHg 28%
    15:00 +39°C° 0 mm 3 mps 715 mmHg 28%
    16:00 +39°C° 0 mm 3 mps 714 mmHg 29%
    17:00 +39°C° 0 mm 3 mps 714 mmHg 29%
    18:00 +37°C° 0.3 mm 3 mps 714 mmHg 34%
    19:00 +35°C° 0.3 mm 2 mps 714 mmHg 39%
    20:00 +32°C° 0.3 mm 2 mps 715 mmHg 43%
    21:00 +31°C° 0.4 mm 2 mps 715 mmHg 46%
    22:00 +30°C° 0.4 mm 2 mps 716 mmHg 48%
    23:00 +29°C° 0.4 mm 2 mps 716 mmHg 50%

    Tomorrow, 22 February, Wednesday

    Time Temperature Precipitation Wind Pressure Humidity
    00:00 +29°C° 0.4 mm 2 mps 716 mmHg 51%
    01:00 +28°C° 0.4 mm 2 mps 716 mmHg 53%
    02:00 +28°C° 0.4 mm 2 mps 715 mmHg 55%
    03:00 +28°C° 0.2 mm 2 mps 715 mmHg 55%
    04:00 +27°C° 0.2 mm 2 mps 715 mmHg 56%
    05:00 +27°C° 0.2 mm 2 mps 715 mmHg 56%
    06:00 +28°C° 0.1 mm 2 mps 715 mmHg 53%
    07:00 +29°C° 0.1 mm 1 mps 716 mmHg 49%
    08:00 +30°C° 0.1 mm 1 mps 716 mmHg 46%
    09:00 +31°C° 0.3 mm 1 mps 716 mmHg 43%
    10:00 +33°C° 0.3 mm 1 mps 716 mmHg 40%
    11:00 +34°C° 0.3 mm 1 mps 716 mmHg 37%
    12:00 +35°C° 0.1 mm 1 mps 715 mmHg 36%
    13:00 +36°C° 0.1 mm 2 mps 715 mmHg 34%
    14:00 +37°C° 0.1 mm 2 mps 714 mmHg 32%
    15:00 +37°C° 0.1 mm 2 mps 713 mmHg 32%
    16:00 +37°C° 0.1 mm 2 mps 713 mmHg 32%
    17:00 +37°C° 0.1 mm 2 mps 712 mmHg 32%
    18:00 +36°C° 0.6 mm 2 mps 712 mmHg 36%
    19:00 +34°C° 0.6 mm 2 mps 713 mmHg 41%
    20:00 +32°C° 0.6 mm 2 mps 713 mmHg 45%
    21:00 +31°C° 0.5 mm 2 mps 714 mmHg 47%
    22:00 +30°C° 0.5 mm 2 mps 714 mmHg 48%
    23:00 +29°C° 0.5 mm 2 mps 714 mmHg 50%

    Day after tomorrow, 23 February, Thursday

    Time Temperature Precipitation Wind Pressure Humidity
    00:00 +29°C° 0.4 mm 2 mps 714 mmHg 49%
    01:00 +29°C° 0.4 mm 2 mps 714 mmHg 49%
    02:00 +28°C° 0.4 mm 3 mps 713 mmHg 49%
    03:00 +28°C° 0.2 mm 2 mps 713 mmHg 49%
    04:00 +28°C° 0.2 mm 2 mps 713 mmHg 49%
    05:00 +27°C° 0.2 mm 2 mps 713 mmHg 49%
    06:00 +28°C° 0.1 mm 2 mps 714 mmHg 46%
    07:00 +30°C° 0.1 mm 2 mps 714 mmHg 43%
    08:00 +31°C° 0.1 mm 2 mps 715 mmHg 40%
    09:00 +32°C° 0.1 mm 1 mps 715 mmHg 37%
    10:00 +34°C° 0.1 mm 1 mps 715 mmHg 34%
    11:00 +35°C° 0.1 mm 1 mps 715 mmHg 31%
    12:00 +36°C° 0 mm 1 mps 714 mmHg 29%
    13:00 +37°C° 0 mm 1 mps 713 mmHg 28%
    14:00 +39°C° 0 mm 1 mps 713 mmHg 26%
    15:00 +38°C° 0.1 mm 2 mps 712 mmHg 27%
    16:00 +38°C° 0.1 mm 2 mps 712 mmHg 27%
    17:00 +38°C° 0.1 mm 2 mps 711 mmHg 27%
    18:00 +37°C° 0.2 mm 2 mps 712 mmHg 31%
    19:00 +35°C° 0.2 mm 2 mps 712 mmHg 34%
    20:00 +32°C° 0.2 mm 2 mps 712 mmHg 38%
    21:00 +32°C° 0.2 mm 2 mps 712 mmHg 39%
    22:00 +31°C° 0.2 mm 3 mps 713 mmHg 40%
    23:00 +30°C° 0.2 mm 3 mps 713 mmHg 42%

    24 February, Friday

    Time Temperature Precipitation Wind Pressure Humidity
    00:00 +30°C° 0.1 mm 3 mps 713 mmHg 42%
    01:00 +29°C° 0.1 mm 3 mps 712 mmHg 42%
    02:00 +29°C° 0.1 mm 3 mps 712 mmHg 43%
    03:00 +28°C° 0 mm 2 mps 712 mmHg 43%
    04:00 +28°C° 0 mm 2 mps 712 mmHg 44%
    05:00 +27°C° 0 mm 2 mps 712 mmHg 45%
    06:00 +29°C° 0 mm 2 mps 712 mmHg 42%
    07:00 +30°C° 0 mm 2 mps 713 mmHg 38%
    08:00 +31°C° 0 mm 1 mps 714 mmHg 35%
    09:00 +33°C° 0 mm 1 mps 714 mmHg 32%
    10:00 +34°C° 0 mm 1 mps 714 mmHg 29%
    11:00 +36°C° 0 mm 1 mps 714 mmHg 25%
    12:00 +37°C° 0 mm 1 mps 713 mmHg 24%
    13:00 +39°C° 0 mm 2 mps 712 mmHg 24%
    14:00 +40°C° 0 mm 2 mps 712 mmHg 23%
    15:00 +40°C° 0 mm 3 mps 711 mmHg 23%
    16:00 +40°C° 0 mm 3 mps 711 mmHg 23%
    17:00 +40°C° 0 mm 3 mps 710 mmHg 24%
    18:00 +38°C° 0 mm 3 mps 711 mmHg 27%
    19:00 +36°C° 0 mm 3 mps 711 mmHg 31%
    20:00 +34°C° 0 mm 3 mps 711 mmHg 35%
    21:00 +33°C° 0.1 mm 3 mps 712 mmHg 37%
    22:00 +31°C° 0.1 mm 2 mps 712 mmHg 39%
    23:00 +30°C° 0.1 mm 2 mps 713 mmHg 42%

    25 February, Saturday

    Time Temperature Precipitation Wind Pressure Humidity
    00:00 +30°C° 0.2 mm 2 mps 712 mmHg 42%
    01:00 +29°C° 0.2 mm 2 mps 712 mmHg 43%
    02:00 +29°C° 0.2 mm 2 mps 712 mmHg 44%
    03:00 +29°C° 0.2 mm 2 mps 712 mmHg 45%
    04:00 +29°C° 0.2 mm 2 mps 712 mmHg 46%
    05:00 +28°C° 0.2 mm 2 mps 712 mmHg 47%
    06:00 +29°C° 0.1 mm 2 mps 712 mmHg 45%
    07:00 +30°C° 0.1 mm 2 mps 712 mmHg 44%
    08:00 +30°C° 0.1 mm 2 mps 713 mmHg 42%
    09:00 +31°C° 0.2 mm 2 mps 713 mmHg 41%
    10:00 +32°C° 0.2 mm 1 mps 713 mmHg 39%
    11:00 +33°C° 0.2 mm 1 mps 713 mmHg 37%
    12:00 +33°C° 0.2 mm 1 mps 712 mmHg 36%
    13:00 +34°C° 0.2 mm 1 mps 712 mmHg 35%
    14:00 +34°C° 0.2 mm 1 mps 711 mmHg 34%
    15:00 +34°C° 0.2 mm 1 mps 711 mmHg 34%
    16:00 +35°C° 0.2 mm 1 mps 710 mmHg 34%
    17:00 +35°C° 0.2 mm 1 mps 710 mmHg 34%
    18:00 +33°C° 0.4 mm 1 mps 710 mmHg 38%
    19:00 +32°C° 0.4 mm 2 mps 710 mmHg 42%
    20:00 +31°C° 0.4 mm 2 mps 711 mmHg 46%
    21:00 +30°C° 0.5 mm 2 mps 711 mmHg 49%
    22:00 +29°C° 0.5 mm 2 mps 711 mmHg 51%
    23:00 +28°C° 0.5 mm 2 mps 711 mmHg 53%

    26 February, Sunday

    Time Temperature Precipitation Wind Pressure Humidity
    00:00 +28°C° 0.4 mm 2 mps 711 mmHg 55%
    01:00 +28°C° 0.4 mm 2 mps 711 mmHg 56%
    02:00 +27°C° 0.4 mm 1 mps 711 mmHg 57%
    03:00 +27°C° 0.3 mm 1 mps 711 mmHg 59%
    04:00 +27°C° 0.3 mm 1 mps 711 mmHg 61%
    05:00 +26°C° 0.3 mm 1 mps 711 mmHg 63%
    06:00 +27°C° 0.4 mm 1 mps 711 mmHg 60%
    07:00 +28°C° 0.4 mm 1 mps 712 mmHg 56%
    08:00 +29°C° 0.4 mm 1 mps 712 mmHg 53%
    09:00 +30°C° 0.4 mm 1 mps 712 mmHg 49%
    10:00 +31°C° 0.4 mm 1 mps 712 mmHg 46%
    11:00 +34°C° 0.4 mm 2 mps 712 mmHg 42%
    12:00 +35°C° 0.1 mm 2 mps 712 mmHg 39%
    13:00 +36°C° 0.1 mm 2 mps 711 mmHg 37%
    14:00 +37°C° 0.1 mm 3 mps 710 mmHg 34%
    15:00 +37°C° 0.2 mm 3 mps 710 mmHg 35%
    16:00 +37°C° 0.2 mm 3 mps 710 mmHg 36%
    17:00 +37°C° 0.2 mm 3 mps 710 mmHg 36%
    18:00 +35°C° 0.9 mm 3 mps 710 mmHg 43%
    19:00 +34°C° 0.9 mm 2 mps 711 mmHg 49%
    20:00 +31°C° 0.9 mm 1 mps 711 mmHg 55%
    21:00 +30°C° 1.7 mm 2 mps 712 mmHg 58%
    22:00 +30°C° 1.7 mm 2 mps 712 mmHg 61%
    23:00 +29°C° 1.7 mm 3 mps 713 mmHg 64%
    Show more